This demonstration page uses our WeatherBlox Daily Observations layout. Learn more.

Left ArrowRight Arrow

34.02893, -84.19858

Hourly Observations for February 26, 2021

Temp ( °F °C ) Dew Point ( °F °C ) Humidity (%) Winds ( mph kmh ) Pressure ( in mb ) Visibility ( mi km ) Precip ( " mm )
12:53 am 00:53 Clear 50 10 36 2.2 59 59 Calm 30.11 1020 10 16 0.00 0.00
1:53 am 01:53 Partly Cloudy 47 8.3 37 2.8 69 69 Calm 30.12 1020 10 16 0.00 0.00
2:53 am 02:53 Cloudy 49 9.4 41 5 74 74 Calm 30.09 1019 10 16 0.00 0.00
3:53 am 03:53 Mostly Cloudy 52 11.1 37 2.8 57 57 Calm 30.07 1018 10 16 0.00 0.00
4:53 am 04:53 Cloudy 54 12.2 36 2.2 51 51 NNW 9 15 30.11 1020 10 16 0.00 0.00
5:53 am 05:53 Cloudy with Rain 49 9.4 45 7.2 86 86 NNE 7 11 30.15 1021 6 10 0.07 1.78
6:53 am 06:53 Cloudy with Light Rain 49 9.4 48 8.9 97 97 Calm 30.14 1021 6 10 0.03 0.76
7:53 am 07:53 Cloudy with Mist and Fog 50 10 50 10 100 100 Calm 30.13 1020 5 8 0.00 0.00
8:32 am 08:32 Cloudy 52 11.1 51 10.6 97 97 NE 7 11 30.16 1021 8 13 0.00 0.00
8:49 am 08:49 Cloudy 52 11 52 11 100 100 N 7 11 30.19 1022 7 11 0.00 0.00
8:53 am 08:53 Cloudy with Light Rain 52 11.1 51 10.6 97 97 NE 6 9 30.17 1022 5 8 0.01 0.25
9:10 am 09:10 Cloudy with Light Rain 51 10.6 50 10 96 96 E 6 9 30.18 1022 4 6 0.03 0.76
9:19 am 09:19 Cloudy with Light Rain 51 10.6 49 9.4 92 92 VRB 5 7 30.19 1022 4 6 0.04 1.02
9:37 am 09:37 Cloudy with Light Rain 50 10 49 9.4 96 96 VRB 6 9 30.18 1022 5 8 0.05 1.27
9:53 am 09:53 Cloudy 49 9.4 48 8.9 97 97 E 8 13 30.18 1022 7 11 0.05 1.27
10:53 am 10:53 Cloudy with Light Rain 49 9.4 47 8.3 93 93 N 8 13 30.24 1024 6 10 0.00 0.00
11:07 am 11:07 Cloudy with Rain 48 8.9 47 8.3 96 96 NNW 8 13 30.26 1025 2 3 0.06 1.52
11:18 am 11:18 Cloudy with Light Rain 48 8.9 47 8.3 96 96 NNE 5 7 30.27 1025 3 5 0.08 2.03
11:43 am 11:43 Cloudy with Light Rain 49 9.4 47 8.3 93 93 Calm 30.23 1024 5 8 0.08 2.03
11:53 am 11:53 Cloudy with Light Rain 49 9.4 47 8.3 93 93 undefined N/A 30.22 1023 5 8 0.08 2.03
12:00 pm 12:00 Cloudy with Light Rain 48 8.9 47 8.3 96 96 VRB 3 6 30.24 1024 5 8 0.00 0.00
12:19 pm 12:19 Cloudy with Mist and Fog 48 8.9 46 7.8 93 93 undefined N/A 30.21 1023 6 10 0.00 0.00
12:43 pm 12:43 Cloudy 49 9.4 47 8.3 93 93 ENE 7 11 30.19 1022 8 13 0.00 0.00
12:53 pm 12:53 Cloudy 49 9.4 47 8.3 93 93 VRB 7 11 30.19 1022 9 14 0.00 0.00
1:53 pm 13:53 Cloudy 49 9.4 47 8.3 93 93 VRB 7 11 30.16 1022 9 14 0.00 0.00
2:53 pm 14:53 Cloudy 49 9.4 47 8.3 93 93 E 6 9 30.14 1021 7 11 0.00 0.00
3:23 pm 15:23 Cloudy with Light Rain 48 8.9 47 8.3 96 96 E 6 9 30.15 1021 3 4 0.01 0.25
3:33 pm 15:33 Cloudy with Mist and Fog 49 9.4 48 8.9 97 97 E 7 11 30.13 1020 4 6 0.01 0.25
3:53 pm 15:53 Cloudy 48 8.9 47 8.3 96 96 ENE 7 11 30.14 1021 7 11 0.01 0.25
4:53 pm 16:53 Cloudy with Mist and Fog 49 9.4 47 8.3 93 93 VRB 3 6 30.12 1020 4 6 0.00 0.00
5:53 pm 17:53 Cloudy with Mist and Fog 49 9.4 47 8.3 93 93 undefined N/A 30.13 1020 6 10 0.00 0.00
6:53 pm 18:53 Cloudy with Mist and Fog 48 8.9 46 7.8 93 93 E 7 11 30.14 1021 6 10 0.00 0.00
7:53 pm 19:53 Cloudy with Mist and Fog 47 8.3 46 7.8 97 97 VRB 5 7 30.14 1021 5 8 0.00 0.00
8:18 pm 20:18 Cloudy with Mist and Fog 47 8.3 46 7.8 97 97 E 5 7 30.15 1021 5 8 0.00 0.00
8:53 pm 20:53 Cloudy with Mist and Fog 47 8.3 46 7.8 97 97 ENE 6 9 30.15 1021 4 6 0.00 0.00
9:53 pm 21:53 Cloudy with Mist and Fog 47 8.3 46 7.8 97 97 VRB 3 6 30.16 1021 4 6 0.00 0.00
10:53 pm 22:53 Cloudy with Mist and Fog 47 8.3 46 7.8 97 97 VRB 7 11 30.19 1022 3 5 0.00 0.00
11:53 pm 23:53 Cloudy with Light Rain 47 8.3 46 7.8 97 97 E 7 11 30.18 1022 3 5 0.00 0.00

Powered by AerisWeather